www.pogodaiklimat.ru

Погода и климат >> Архив погоды >> Австралия >> Северная территория >> База ВВС Delamere Weapons Range


ПОГОДА на Базе ВВС Delamere Weapons Range

  • Прогноз погоды на Базе ВВС Delamere Weapons Range
  • Монитор погоды на Базе ВВС Delamere Weapons Range

АРХИВ ПОГОДЫ на Базе ВВС Delamere Weapons Range

Время (UTC), дата Ветер
(напр.,м/с)
 
Видим.   Явления Облачность Т
(С)
Тd
(С)
f
(%)
Тe
(С)
Тes
(С)
Комфортность P
(гПа)
Po
(гПа)
Тmin
(С)
Tmax
(С)
R
(мм)
R24
(мм)
S
(см)
02 14.05 В 5 н/о н/о +31.0 +3.1 17 +29 +29 жарко 1014.7 989.4 +20.4
05 14.05 ЮВ 4 н/о н/о +32.9 +4.6 17 +30 +30 жарко 1012.0 986.7
08 14.05 В 4 н/о н/о +31.6 +3.6 17 +29 +29 жарко 1012.3 987.0
11 14.05 ЮВ 4 н/о н/о +26.7 +3.2 22 +25 +25 комфорт 1014.3 989.0
14 14.05 ЮВ 4 н/о н/о +24.5 +4.8 28 +24 +24 комфорт 1014.6 989.3 +33.9
17 14.05 ЮВ 3 н/о н/о +22.4 +5.8 34 +23 +23 комфорт 1014.0 988.7
20 14.05 ЮВ 3 н/о н/о +20.0 +4.5 36 +21 +21 комфорт 1014.7 989.4
23 14.05 ЮВ 5 н/о н/о +25.0 +9.3 37 +26 +26 жарко 1016.1 990.7
02 15.05 В 5 н/о н/о +31.2 +8.2 24 +30 +30 жарко 1014.2 988.9 +19.5
05 15.05 ЮВ 4 н/о н/о +33.4 +5.9 18 +31 +31 жарко 1011.3 986.1
08 15.05 ЮВ 4 н/о н/о +32.3 +5.0 18 +30 +30 жарко 1011.7 986.4
11 15.05 Ю 3 н/о н/о +27.5 +6.8 27 +27 +27 жарко 1013.6 988.3
14 15.05 Ю 2 н/о н/о +24.4 +8.0 35 +25 +25 комфорт 1013.6 988.3 +34.8
17 15.05 ЮВ 2 н/о н/о +20.9 +9.5 48 +23 +23 комфорт 1012.4 987.1
20 15.05 ЮВ 3 н/о н/о +22.7 +11.1 48 +25 +25 комфорт 1012.3 987.0
23 15.05 ЮВ 5 н/о н/о +26.5 +12.5 42 +28 +28 жарко 1013.4 988.1
02 16.05 В 5 н/о 1/1 1500 м
[]
+32.3 +14.9 35 +34 +41 душно 1012.3 987.0 +20.7
05 16.05 В 4 н/о 8/0 2000 м
[]
+34.8 +14.7 30 +36 +41 душно 1009.5 984.3
08 16.05 В 3 н/о 6/0
[]
+33.7 +13.7 30 +35 +35 очень
жарко
1009.8 984.6
11 16.05 СВ 2 н/о 1/0
[]
+28.8 +13.9 40 +31 +31 жарко 1012.1 986.8
14 16.05 СВ 3 н/о 3/0 2000 м
[]
+27.4 +16.7 52 +31 +31 душно 1012.0 986.7 +35.5
17 16.05 СВ 3 н/о н/о +25.0 +18.0 65 +29 +29 душно 1011.7 986.4
20 16.05 СВ 3 н/о 4/0 2000 м
[]
+23.8 +19.3 76 +29 +29 душно 1011.9 986.6
23 16.05 СВ 5 н/о н/о +26.3 +19.9 68 +32 +32 очень
душно
1013.5 988.2
02 17.05 В 7 н/о 5/5 1000 м
[]
+32.9 +17.9 41 +37 +39 очень
душно
1012.3 987.0 +23.0
05 17.05 В 7 н/о 8/8 1500 м
[]
+34.2 +16.5 35 +37 +38 очень
душно
1009.6 984.4
08 17.05 В 4 н/о н/о +33.0 +15.9 36 +36 +36 очень
душно
1010.0 984.8
11 17.05 СВ 6 н/о н/о +29.8 +18.3 50 +35 +35 очень
душно
1012.8 987.5
14 17.05 СВ 5 н/о н/о +26.0 +18.7 64 +31 +31 очень
душно
1013.2 987.9 +35.5
17 17.05 В 2 н/о н/о +23.5 +18.6 74 +28 +28 душно 1012.6 987.3
20 17.05 В 2 н/о 1/0
[]
+22.6 +19.2 81 +29 +29 очень
душно
1012.5 987.2
23 17.05 СВ 3 н/о 4/0
[]
+25.4 +20.2 73 +31 +33 очень
душно
1014.3 989.0
02 18.05 В 6 н/о 9/9 1000 м
[]
+30.9 +19.3 50 +37 +37 очень
душно
1013.4 988.1 +22.1
05 18.05 С 5 н/о 9/9 1500 м
[]
+33.8 +17.1 37 +37 +38 очень
душно
1010.6 985.4
08 18.05 СВ 3 н/о 4/0
[]
+32.6 +16.4 38 +36 +36 очень
душно
1011.0 985.8
11 18.05 СВ 2 н/о 8/0
[]
+29.8 +17.3 47 +34 +34 очень
душно
1013.3 988.0
14 18.05 СВ 4 н/о 1/0
[]
+28.3 +17.8 53 +33 +33 очень
душно
1013.8 988.5 +35.0
17 18.05 СВ 3 н/о н/о +25.7 +18.6 65 +31 +31 очень
душно
1013.4 988.1
20 18.05 СВ 2 н/о н/о +23.3 +18.6 75 +29 +29 душно 1013.8 988.5
23 18.05 В 5 н/о 1/0
[]
+26.9 +19.0 62 +32 +33 очень
душно
1015.9 990.5
02 19.05 В 7 н/о н/о +31.9 +15.0 36 +34 +34 душно 1014.7 989.4 +23.1
05 19.05 В 4 н/о н/о +33.5 +14.5 32 +35 +35 душно 1012.0 986.7
08 19.05 В 4 н/о 1/0 2000 м
[]
+32.9 +13.5 31 +34 +34 очень
жарко
1012.3 987.0
11 19.05 ЮВ 2 н/о 6/0
[]
+30.2 +13.9 37 +32 +32 жарко 1014.2 988.9
14 19.05 ЮВ 3 н/о 10/0 2000 м
[]
+28.7 +14.1 41 +31 +31 жарко 1014.6 989.3 +35.4
17 19.05 В 2 н/о н/о +26.1 +18.5 63 +31 +31 очень
душно
1013.9 988.6
20 19.05 В 2 н/о н/о +24.2 +18.8 72 +29 +29 душно 1014.7 989.4
23 19.05 В 5 н/о н/о +26.1 +18.2 62 +31 +31 очень
душно
1015.8 990.4
02 20.05 В 7 н/о н/о +32.3 +15.7 37 +35 +35 очень
душно
1014.7 989.4 +23.6
05 20.05 В 6 н/о 1/0 2000 м
[]
+33.8 +13.8 30 +35 +39 очень
жарко
1012.0 986.7
08 20.05 В 4 н/о н/о +32.9 +13.0 30 +34 +34 очень
жарко
1012.2 986.9
11 20.05 СВ 2 н/о н/о +28.4 +13.1 39 +30 +30 жарко 1014.2 988.9
14 20.05 В 2 н/о н/о +25.8 +13.6 47 +28 +28 жарко 1014.4 989.1 +35.2

 

Местоположение метеостанции База ВВС Delamere Weapons Range (Северная территория, Австралия): широта -15.75 долгота 131.92 высота над уровнем моря 222 м.

В архиве по умолчанию представлена погода на Базе ВВС Delamere Weapons Range за последнюю неделю. Архивные данные за месяц целиком и за предыдущие месяцы, начиная с января 2011 года, Вы можете получить, выбрав интересующий диапазон дат из раскрывающегося списка и нажав кнопку "Ввод!".


*Определитесь, кто Вы:
робот инопланетянин человек

Внимание! Время в таблицах - всемирное. Для получения местного времени необходимо прибавить поправку, которая равна 9.5 ч.

Смотрите также архив погоды в соседних городах и на ближайших метеорологических станциях:

Погода в Виктория-Ривер (Северная территория, Австралия) (120 км)
Погода в Тиндале (Северная территория, Австралия) (146 км)
Погода в Манбуллу Ксиро (Северная территория, Австралия) (149 км)
Погода в Дейли Уотерс (Северная территория, Австралия) (165 км)
Погода на Маяке Кейп-Дон (Северная территория, Австралия) (228 км)
Погода на Центральном плато Арнем (Северная территория, Австралия) (297 км)
Погода в Порт Китс (Северная территория, Австралия) (306 км)
Погода в Батчелоре (Северная территория, Австралия) (316 км)
Погода в Ладжаману (Северная территория, Австралия) (318 км)
Погода в Кунунарре (Западная Австралия, Австралия) (344 км)

Пояснения к столбцам:

Ветер - указаны скорость ветра в м/с - средняя за 10 мин, порывы в срок и между сроками (в фигурных скобках) и направление, откуда дует ветер: С - северный, СВ - северо-восточный, В - восточный, ЮВ - юго-восточный, Ю - южный, ЮЗ - юго-западный, З - западный, СЗ - северо-западный.
Видимость - горизонтальная дальность видимости в метрах или километрах. При видимости от 1 до 10 км при отсутствии осадков обычно наблюдается дымка, при ухудшении видимости до 1 км и менее - туман. В сухую погоду видимость может ухудшаться дымом, пылью или мглою.
Явления - указаны атмосферные явления, наблюдавшиеся в срок или в последний час перед сроком; фигурными скобками обозначены явления, наблюдавшиеся между сроками (за 1-3 часа до срока); квадратными скобками обозначены град или гололедные отложения с указанием их диаметра в мм.
Облачность - указаны через наклонную черту общая и нижняя облачность в баллах и высота нижней границы облаков в метрах; квадратными скобками обозначены формы облаков: Ci - перистые, Cs - перисто-слоистые, Cc - перисто-кучевые, Ac - высококучевые, As - высокослоистые, Sc - слоисто-кучевые, Ns - слоисто-дождевые, Cu - кучевые, Cb - кучево-дождевые. Подробнее классификацию облаков см. в Атласе облаков (PDF).
T - Температура воздуха - температура, измеренная на высоте 2 м над землей.
Td - Температура точки росы - температура, при понижении до которой содержащийся в воздухе водяной пар достигнет насыщения.
f - Относительная влажность воздуха - влажноcть воздуха, измеренная на высоте 2 м над землей.
Te - Эффективная температура - температура, которую ощущает одетый по сезону человек в тени. Характеристика душности погоды. При расчете учитывается влияние влажности воздуха и скорости ветра на теплоощущения человека.
Tes - Эффективная температура на солнце - температура, которую ощущает человек, с поправкой на солнечный нагрев. Характеристика знойности погоды. Зависит от высоты солнца над горизонтом, облачности и скорости ветра. Ночью, в пасмурную погоду, а также при ветре 12 м/с и более поправка равна нулю.
P - Атмосферное давление - приведенное к уровню моря атмосферное давление.
Po - Атмосферное давление - измеренное на уровне метеостанции атмосферное давление.
Tmin - Минимальная температура - минимум температуры воздуха на высоте 2 м над землей.
Tmax - Максимальная температура - максимум температуры воздуха на высоте 2 м над землей.
R - Количество осадков - Количество выпавших осадков за период времени, мм. При наведении курсора мыши на число - период времени, за который выпало указанное количество осадков.
R24 - Количество осадков - Количество выпавших осадков за 24 часа, мм.
S - Снежный покров - Высота снежного покрова, см. При наведении курсора мыши на число - состояние снежного покрова и степень покрытия местности в баллах.